This is the latest recevied weather packets stored in our database for station/object KE6RLG. If no packets are shown the sender has not sent any weather packets the latest 10 day(s).
| Time | Temp. | Humidity | Pressure | Rain* | Wind** | Luminosity | Snow |
|---|---|---|---|---|---|---|---|
| 1777815022 | 14.44° C | 81% | 1012.6 hPa | 0 mm | - | 12 W/m² | - |
| 1777812023 | 14.44° C | 81% | 1012.5 hPa | 0 mm | - | 0 W/m² | - |
| 1777810563 | 14.44° C | 81% | 1012.4 hPa | 0 mm | - | 0 W/m² | - |
| 1777810223 | 14.44° C | 81% | 1012.5 hPa | 0 mm | - | 0 W/m² | - |
| 1777809643 | 14.44° C | 81% | 1012.5 hPa | 0 mm | - | 0 W/m² | - |
| 1777808723 | 14.44° C | 81% | 1012.6 hPa | 0 mm | - | 0 W/m² | - |
| 1777806944 | 14.44° C | 81% | 1012.8 hPa | 0 mm | - | 0 W/m² | - |
| 1777805724 | 14.44° C | 82% | 1012.7 hPa | 0 mm | - | 0 W/m² | - |
| 1777801825 | 14.44° C | 85% | 1012.6 hPa | 0 mm | - | 0 W/m² | - |
| 1777801245 | 14.44° C | 85% | 1012.6 hPa | 0 mm | - | 0 W/m² | - |
| 1777800625 | 14.44° C | 85% | 1012.8 hPa | 0 mm | - | 0 W/m² | - |
| 1777800325 | 14.44° C | 84% | 1012.8 hPa | 0 mm | - | 0 W/m² | - |
| 1777798525 | 14.44° C | 84% | 1012.9 hPa | 0 mm | - | 0 W/m² | - |
| 1777798226 | 14.44° C | 84% | 1013 hPa | 0 mm | - | 0 W/m² | - |
| 1777796426 | 14.44° C | 83% | 1013.3 hPa | 0 mm | - | 0 W/m² | - |
| 1777790427 | 15° C | 84% | 1012.6 hPa | 0 mm | - | 0 W/m² | - |
| 1777790168 | 15° C | 85% | 1012.6 hPa | 0 mm | - | 0 W/m² | - |
| 1777788628 | 15° C | 84% | 1012.8 hPa | 0 mm | - | 0 W/m² | - |
| 1777784420 | 15° C | 86% | 1012.7 hPa | 0 mm | - | 0 W/m² | - |
| 1777784120 | 14.44° C | 86% | 1012.7 hPa | 0 mm | - | 0 W/m² | - |
| 1777779019 | 14.44° C | 88% | 1011.2 hPa | 0 mm | - | 0 W/m² | - |
| 1777777819 | 14.44° C | 87% | 1010.9 hPa | 0 mm | - | 0 W/m² | - |
| 1777777219 | 14.44° C | 87% | 1010.8 hPa | 0 mm | - | 0 W/m² | - |
| 1777775119 | 15° C | 85% | 1010.7 hPa | 0 mm | - | 16 W/m² | - |
| 1777774819 | 15° C | 85% | 1010.7 hPa | 0 mm | - | 21 W/m² | - |
* Rain latest hour (hover to see other rain measurements)
** Current wind speed in m/s (hover to see current wind gust speed)